Weather History for KFLG - November, 2012

Change the Weather History Date:

Monday, November 26, 2012

  Actual Average Record
Temperature  
Mean Temperature 42 °F 33 °F  
Max Temperature 58 °F 46 °F 70 °F (1977)
Min Temperature 25 °F 20 °F -8 °F (1906)
Degree Days  
Heating Degree Days 23 32  
Month to date heating degree days 653 719  
Since 1 July heating degree days 1342 1602  
Cooling Degree Days 0 0  
Month to date cooling degree days 0 0  
Year to date cooling degree days 164 117  
Moisture  
Dew Point 17 °F    
Average Humidity 44    
Maximum Humidity 75    
Minimum Humidity 13    
Precipitation  
Precipitation 0.00 in 0.07 in 1.85 in (1919)
Month to date precipitation 1.02 1.53  
Year to date precipitation 12.81 19.76  
Snow  
Snow 0.00 in 0.50 in 6.40 in (1990)
Month to date snowfall 1.1 8.6  
Since 1 July snowfall 1.1 10.1  
Snow Depth 0.00 in    
Sea Level Pressure  
Sea Level Pressure 30.13 in    
Wind  
Wind Speed 1 mph (East)    
Max Wind Speed 12 mph    
Max Gust Speed 14 mph    
Visibility 10 miles    
Events      
T = Trace of Precipitation, MM = Missing Value Source: NWS Daily Summary

Daily Weather History Graph

Daily Weather History Graph

Search for Another Location

Airport or City:

Trip Planner

Search our weather history database for the weather conditions in past years. The results will help you decide how hot, cold, wet, or windy it might be!

Date:

Astronomy

Nov. 26, 2012 Rise Set
Actual Time 7:12 AM MST 5:15 PM MST
Civil Twilight 6:45 AM MST 5:43 PM MST
Nautical Twilight 6:13 AM MST 6:14 PM MST
Astronomical Twilight 5:43 AM MST 6:44 PM MST
Moon 4:08 PM MST (11/26) 5:28 AM MST (11/26)
Length of Visible Light 10h 58m
Length of Day
10h 03m
Waxing Gibbous, 97% of the Moon is Illuminated
Nov 26
Waxing Gibbous
Nov 28
Full
Dec 6
Last Quarter
Dec 13
New
Dec 19
First Quarter

Hourly Weather History & Observations

Time (MST) Temp. Dew Point Humidity Pressure Visibility Wind Dir Wind Speed Gust Speed Precip Events Conditions
12:57 AM 28.0 °F 19.9 °F 72% 29.99 in 10.0 mi Calm Calm - N/A   Clear
1:57 AM 27.0 °F 19.9 °F 75% 29.99 in 10.0 mi Calm Calm - N/A   Clear
2:57 AM 27.0 °F 19.9 °F 75% 30.00 in 10.0 mi Calm Calm - N/A   Clear
3:57 AM 26.1 °F 19.0 °F 75% 30.01 in 10.0 mi Calm Calm - N/A   Clear
4:57 AM 25.0 °F 18.0 °F 75% 30.04 in 10.0 mi Calm Calm - N/A   Clear
5:57 AM 28.0 °F 19.0 °F 69% 30.07 in 10.0 mi Calm Calm - N/A   Clear
6:57 AM 26.1 °F 19.0 °F 75% 30.14 in 10.0 mi Calm Calm - N/A   Clear
7:57 AM 30.9 °F 21.9 °F 69% 30.17 in 10.0 mi Calm Calm - N/A   Clear
8:57 AM 36.0 °F 27.0 °F 70% 30.17 in 10.0 mi Calm Calm - N/A   Clear
9:57 AM 51.1 °F 19.0 °F 28% 30.10 in 10.0 mi Variable 4.6 mph - N/A   Clear
10:57 AM 54.0 °F 15.1 °F 22% 30.11 in 10.0 mi Variable 6.9 mph - N/A   Clear
11:57 AM 55.9 °F 9.0 °F 15% 30.10 in 10.0 mi Calm Calm - N/A   Clear
12:57 PM 57.0 °F 9.0 °F 15% 30.08 in 10.0 mi Calm Calm - N/A   Clear
1:57 PM 57.9 °F 7.0 °F 13% 30.07 in 10.0 mi Variable 4.6 mph - N/A   Clear
2:57 PM 55.9 °F 17.1 °F 22% 30.08 in 10.0 mi Variable 4.6 mph - N/A   Clear
3:57 PM 54.0 °F 19.0 °F 25% 30.12 in 10.0 mi Variable 5.8 mph - N/A   Clear
4:57 PM 50.0 °F 19.0 °F 29% 30.14 in 10.0 mi East 4.6 mph - N/A   Clear
5:57 PM 41.0 °F 19.9 °F 43% 30.19 in 10.0 mi Calm Calm - N/A   Clear
6:57 PM 35.1 °F 18.0 °F 50% 30.26 in 10.0 mi Calm Calm - N/A   Clear
7:57 PM 30.9 °F 17.1 °F 57% 30.27 in 10.0 mi Calm Calm - N/A   Clear
8:57 PM 28.0 °F 17.1 °F 63% 30.28 in 10.0 mi Calm Calm - N/A   Clear
9:57 PM 27.0 °F 16.0 °F 63% 30.23 in 10.0 mi Calm Calm - N/A   Clear
10:57 PM 26.1 °F 16.0 °F 66% 30.22 in 10.0 mi Calm Calm - N/A   Clear
11:57 PM 25.0 °F 17.1 °F 72% 30.22 in 10.0 mi Calm Calm - N/A   Clear